Погода в Большом Исакове

Россия / Калининградская область     54°43′05″N   20°36′31″E
темп.,
°C
ветер,
м/с
пор.,
м/с
влажн.,
%
обл.,
%
осадки,
мм/ч
давл.,
гПа
погр.,
м
25 июля, вс
вс2523:00+15всв22831 0.0 101624
02:00+14в23840 0.0 101628
05:00+13вюв228821 0.0 101625
08:00+21вюв4564100 0.0 1016316
11:00+26вюв5548100 0.0 10161095
14:00+28юв553938 0.0 10152291
17:00+28юв443819 0.0 10152007
20:00+23в366147 0.0 1015120
26 июля, пн
пн2623:00+19вюв3780100 0.0 1016127
02:00+19вюв3874100 0.0 1015170
05:00+18вюв3875100 0.0 1016165
08:00+22вюв4758100 0.1 1016321
11:00+28вюв68425 0.0 10151198
14:00+30юв78355 0.0 10142522
17:00+30юв783766 0.0 10132377
20:00+24ююв4106531 0.0 1014414
27 июля, вт
вт2723:00+23вюв6135998 0.0 1013503
02:00+17вюв3794100 0.4 1013143
05:00+17вюв3896100 1.3 1011220
08:00+19вюв479683 2.3 1011395
11:00+21ю3487100 1.1 1010622
14:00+23зюз4679100 4.6 1010870
17:00+24зюз5668100 0.8 1010751
20:00+21з478481 0.8 1011438
28 июля, ср
ср2823:00+18зюз379747 0.0 1012165
02:00+18зюз35940 0.0 101275
05:00+17зюз3490100 0.0 101165
08:00+22юз456783 0.0 1012458
11:00+26юз455263 0.0 10111059
14:00+28зюз5746100 0.0 10111599
17:00+22з91275100 0.4 1011538
20:00+20сз1179100 0.6 101118
29 июля, чт
чт2923:00+18юз2491100 0.4 1011104
02:00+17юз3697100 0.9 1011148
05:00+16юз23930 0.0 101144
08:00+20з57785 0.1 1011760
11:00+23зюз68589 0.0 10111407
14:00+25з68470 0.1 10111853
17:00+23зсз555313 0.1 10111333
20:00+20зсз3567100 0.1 1011138